Volver al catálogo

FENGYUN 1C DEB

ActivoSSO
NORAD 37060·DEBRIS·🇨🇳 China

Lanzado May 10, 1999 desde Taiyuan Satellite Launch Center

Loading…

Próximos Pases (próximas 24 horas)

TLE

EnvejeciendoSource: Space-Track

Época: Sep 7, 2026, 08:29 UTC

1 37060U 99025EEU 26250.35389795  .00000123  00000-0  10912-3 0  9997
2 37060  99.0553 310.9783 0078716 327.6775  31.9580 14.00923811664670

Sigue FENGYUN 1C DEB en tiempo real con AllMySat

Download on the App Store